Location: Charlottesville
(38.0290°N, 78.4770°W)
Time: 13:47:33
(UTC-04:00)

Tiangong 2 - Pass Details

Date: 07 October 2017
Orbit: 388 x 391 km, 42.8° (Epoch: 21 October)

Event Time Altitude Azimuth Distance (km) Brightness Sun altitude
Exits shadow 06:45:27 - 238° (WSW) 1,826 4.0 -6.7°
Reaches altitude 10° 06:46:27 10° 236° (SW) 1,416 3.4 -6.5°
Maximum altitude 06:49:37 65° 155° (SSE) 432 1.5 -5.9°
Drops below altitude 10° 06:52:49 10° 72° (ENE) 1,423 5.3 -5.2°
Sets 06:54:54 0° 69° (ENE) 2,281 6.4 -4.8°
